Wind_Speed
12 12 11 11 10 11 9 8 8 7 6 5 5 4 3 3 4 7 8 10 12 13 14 14 13 12 12 12 12 11 11 9 8 7 6 4 3 3 3 3 3 3 3 3 2 2 2 2 2
12 12 11 11 11 9 9 9 8 7 7 6 5 4 4 4 5 7 9 10 12 13 14 14 14 13 13 13 13 12 11 9 8 7 6 4 3 2 2 2 2 2 2 2 2 1 1 1 1
12 12 11 11 10 7 8 9 9 8 7 6 5 5 4 5 6 7 9 10 12 13 15 15 15 14 14 14 14 13 11 10 8 7 5 4 3 2 1 1 1 1 1 1 1 1 0 0 1
11 12 11 11 9 9 9 10 9 9 8 7 6 5 5 5 6 7 8 10 11 13 15 16 16 15 14 14 14 13 12 10 8 7 5 4 2 2 1 1 1 1 1 1 1 1 0 0 1
11 11 11 10 9 10 11 11 10 9 9 9 8 7 7 6 6 6 8 10 11 13 15 16 16 16 15 15 14 14 13 11 9 8 6 4 3 2 1 0 1 1 2 2 1 1 0 1 1
10 11 9 6 9 11 12 12 11 10 10 10 10 10 10 8 8 7 8 10 12 13 16 17 16 16 17 16 15 14 13 11 10 8 6 4 2 1 0 0 1 1 2 2 1 1 1 1 2
10 9 8 7 9 10 12 12 11 11 11 11 11 12 13 12 9 8 8 10 12 13 16 17 17 17 17 17 16 15 14 12 11 9 6 4 2 1 1 1 2 2 2 2 1 1 1 2 2
9 8 7 7 8 10 12 13 12 12 12 12 13 13 14 13 10 8 8 9 11 14 16 18 19 18 18 18 17 15 14 13 11 8 6 4 3 2 1 1 2 2 2 2 2 2 2 2 3
8 7 6 7 8 10 12 13 13 13 13 14 14 14 14 13 10 9 9 9 11 14 17 18 19 19 19 19 18 16 15 13 11 8 6 5 3 2 2 2 2 2 2 2 2 3 2 3 3
8 6 6 8 9 10 12 13 13 14 14 15 15 14 14 13 10 9 9 9 11 15 17 19 19 20 19 19 19 18 16 14 11 9 6 5 3 3 2 2 2 2 2 3 3 4 3 4 4
8 7 7 8 9 10 11 12 14 14 14 16 16 16 14 13 11 9 9 10 11 14 18 20 21 21 21 20 20 19 17 15 12 10 7 5 4 4 3 2 1 2 2 3 3 4 4 4 4
9 8 8 9 9 11 12 12 13 14 14 16 16 16 14 13 11 10 10 11 12 14 18 21 22 22 22 22 21 19 18 15 13 10 8 6 5 4 3 2 2 2 2 2 3 3 4 4 5
9 9 8 9 10 11 12 13 14 14 16 17 16 15 14 14 12 11 12 12 12 15 18 21 23 22 23 23 22 20 18 16 14 11 9 6 5 4 4 3 2 2 2 2 2 3 4 4 4
10 9 9 9 11 12 13 15 16 17 18 18 17 16 15 14 13 12 12 12 13 15 18 21 23 24 24 24 23 21 19 16 15 12 9 7 6 5 4 3 2 2 2 2 2 3 3 3 3
10 9 10 11 12 13 15 16 18 18 19 18 17 16 15 15 14 13 12 12 12 14 17 21 24 25 25 25 25 23 20 18 15 13 11 8 7 6 5 4 3 2 2 2 2 2 3 2 2
10 9 8 12 13 14 16 16 19 19 19 18 16 16 15 14 14 13 11 11 12 14 17 21 25 25 26 26 26 24 22 19 16 14 12 9 8 6 5 4 3 3 2 2 2 2 2 2 2
10 9 10 13 13 15 17 18 18 18 18 17 16 15 14 14 13 12 10 9 10 13 16 20 25 25 26 27 26 25 22 19 17 15 12 10 8 7 5 4 4 3 3 3 2 2 2 1 1
12 11 11 13 14 15 16 17 17 17 18 17 16 15 14 13 12 11 11 10 9 12 15 19 23 25 25 26 26 24 22 20 18 16 14 11 9 8 6 5 4 3 3 3 3 3 2 2 1
13 12 12 13 13 13 14 15 16 16 17 17 16 15 13 12 12 11 10 9 8 10 13 19 21 24 25 25 25 23 21 20 18 16 14 12 11 9 7 5 4 4 4 3 3 3 3 3 2
13 12 12 13 13 13 13 13 14 15 16 17 17 15 13 12 12 12 11 9 8 9 13 16 20 23 25 25 24 23 20 19 18 16 15 13 12 10 8 7 6 5 5 4 4 4 4 3 3
13 13 12 12 11 11 12 12 14 15 16 17 16 15 14 13 12 12 11 7 6 8 12 16 19 21 23 23 23 22 20 19 18 17 15 14 12 10 9 8 8 7 6 6 5 5 5 4 4
14 14 13 11 10 10 11 11 14 15 16 16 15 14 13 13 13 11 9 5 5 7 11 14 17 20 22 23 22 21 20 20 18 17 16 15 13 11 11 10 9 8 8 7 7 6 6 5 5
15 14 13 11 10 9 11 10 12 14 15 15 15 14 13 13 13 11 9 5 3 6 10 13 15 18 20 21 21 21 20 20 18 17 17 16 14 12 12 11 11 10 10 9 9 8 8 7 6
14 13 12 11 10 10 10 9 9 13 14 15 15 13 12 12 12 11 10 7 3 4 8 11 13 16 18 18 19 19 20 19 19 18 17 16 14 13 13 13 12 12 11 11 11 10 10 10 9
15 13 12 11 10 11 12 10 9 12 13 14 14 12 12 12 11 9 8 6 3 2 6 10 12 15 16 17 19 19 19 18 18 17 16 15 15 14 14 14 13 14 14 14 14 13 13 13 13
16 15 14 13 12 12 13 10 9 11 12 12 12 12 11 11 11 9 7 6 3 1 4 7 10 12 14 16 17 19 18 18 17 17 16 16 15 15 15 15 15 15 15 16 16 16 16 16 16
17 17 16 16 14 13 11 10 10 11 11 11 12 12 11 11 10 9 7 5 2 1 3 4 7 9 12 15 17 17 17 17 17 17 17 16 16 16 16 16 17 17 17 17 18 19 19 19 19
19 18 19 16 14 13 12 11 10 10 11 11 11 11 11 11 11 9 8 5 3 3 3 4 5 7 10 13 14 15 16 17 17 18 18 18 17 18 18 18 18 18 19 19 20 21 21 22 22
20 20 20 18 18 15 14 12 14 11 11 12 12 11 12 11 10 9 7 6 4 4 3 3 4 7 9 10 13 14 15 16 17 18 19 19 18 19 19 20 20 20 21 22 22 23 23 24 25
22 22 21 21 20 19 17 14 15 13 13 13 13 13 12 11 10 9 7 6 4 4 4 4 5 6 7 8 11 12 14 16 17 19 20 20 20 20 20 21 21 21 22 24 24 25 25 26 26
Wind_Direction
12 13 15 19 20 19 12 1 352 343 337 335 327 319 314 291 243 221 212 206 203 200 199 198 196 198 201 205 205 201 195 186 177 166 155 142 127 108 88 71 61 61 58 54 57 65 69 74 83
9 11 14 17 25 18 357 355 349 341 337 334 327 319 309 292 268 237 222 213 209 207 206 205 200 200 205 208 208 206 201 193 185 175 166 157 138 114 89 69 62 57 54 51 55 62 77 80 88
8 11 13 14 22 11 349 349 345 341 342 344 340 327 312 295 276 260 238 224 215 212 209 208 205 204 206 210 211 210 207 199 190 181 176 169 155 132 98 74 60 47 40 33 30 27 67 88 103
8 11 13 15 11 356 349 345 342 340 343 346 346 336 318 297 280 266 249 235 225 218 213 210 208 207 207 210 212 212 208 202 194 188 183 178 174 165 142 94 30 7 3 6 8 351 266 188 178
6 11 14 13 1 352 349 344 340 340 340 344 343 338 327 314 290 274 256 240 230 223 216 212 211 210 208 210 214 213 210 205 200 195 190 187 187 176 159 77 6 351 342 337 330 311 267 221 198
6 11 24 6 353 352 349 345 343 346 345 344 344 337 331 325 308 282 265 247 235 224 217 214 213 211 209 211 212 211 210 208 204 200 194 193 195 197 211 338 357 340 327 317 307 289 256 229 212
4 10 16 4 354 352 351 349 348 349 346 347 345 340 334 328 315 294 274 253 238 227 218 211 212 210 209 209 210 210 210 208 206 203 200 201 210 228 268 315 323 313 307 300 296 281 252 226 218
357 5 9 358 354 345 348 350 350 347 346 343 340 339 334 329 316 298 280 258 241 229 218 212 210 210 210 209 209 210 211 209 207 206 208 213 223 242 280 308 302 293 289 292 288 271 258 236 222
351 4 356 344 344 341 343 345 348 345 345 344 339 338 335 328 315 299 284 259 243 228 218 213 211 213 213 210 208 209 210 211 209 209 214 223 232 249 284 295 291 287 283 282 274 266 264 258 238
342 355 338 341 340 340 339 341 344 345 344 344 342 340 336 331 321 304 284 263 245 230 219 213 210 209 210 209 209 210 211 211 211 213 218 226 236 251 274 289 294 271 272 266 263 264 268 265 251
332 335 336 337 337 338 337 337 339 342 343 341 339 337 336 332 325 308 285 268 248 233 220 212 210 210 210 210 211 214 214 212 213 214 218 227 242 249 262 273 282 269 277 277 269 260 263 264 261
320 326 330 332 331 331 330 333 334 335 334 331 331 330 329 327 324 312 290 273 253 235 221 215 211 210 213 214 214 216 216 214 214 217 221 230 241 242 245 257 277 271 276 281 276 272 269 267 267
315 319 322 325 325 326 327 329 329 329 328 328 326 323 321 321 317 308 293 278 259 238 224 214 209 212 215 217 217 217 219 218 218 219 224 231 236 240 244 250 264 260 257 263 272 276 274 269 264
311 314 318 321 321 322 326 327 325 324 324 325 323 320 319 318 316 309 295 278 256 239 227 217 212 213 216 217 217 219 220 220 222 223 227 233 238 243 244 241 256 255 251 251 257 267 271 270 259
307 310 315 313 316 320 326 328 323 325 323 323 320 317 319 317 312 306 293 280 259 236 222 217 214 216 216 217 218 219 220 221 223 225 228 233 236 236 236 236 243 234 240 245 246 257 263 263 260
302 301 297 302 312 319 326 322 321 327 327 326 322 321 318 315 310 305 293 279 258 233 224 218 215 217 216 217 218 219 220 223 226 227 230 233 232 226 222 228 230 227 230 228 234 250 255 254 252
290 281 284 297 311 318 323 322 322 328 331 330 328 327 323 318 313 307 300 287 263 234 225 220 218 217 216 215 216 218 222 225 227 227 228 230 227 223 219 221 220 217 214 211 219 231 232 231 231
268 275 285 294 307 317 321 321 323 331 334 333 335 333 328 323 318 311 303 287 263 238 227 220 216 215 213 213 214 217 221 225 226 226 225 224 222 221 219 219 218 216 213 207 209 215 210 200 184
274 278 285 294 305 315 320 321 324 333 338 339 339 337 336 332 325 318 309 291 266 245 224 215 214 213 211 212 213 216 219 222 222 221 220 220 220 219 217 218 221 220 213 204 201 201 192 182 172
273 275 282 290 301 311 318 320 322 331 338 340 341 343 343 340 337 328 316 295 270 243 224 215 211 211 212 212 212 214 217 219 218 218 217 218 220 218 221 222 223 218 211 202 193 193 186 181 180
270 269 272 284 300 312 317 326 320 327 334 341 344 344 345 343 339 332 323 303 259 236 221 213 209 210 211 212 211 214 216 216 216 217 215 216 218 219 223 222 219 217 213 206 200 199 192 191 193
261 265 270 281 295 303 311 324 320 326 333 339 344 346 350 351 346 341 333 308 252 228 213 209 211 212 211 211 213 215 216 214 216 217 216 217 217 219 222 222 220 220 218 215 212 213 209 209 209
253 259 266 275 286 301 309 319 321 325 332 339 342 347 352 356 353 352 347 329 267 226 210 206 208 205 206 207 209 210 211 212 216 218 216 217 218 222 224 224 222 223 223 222 221 221 224 226 229
255 257 264 273 284 294 292 304 321 323 333 337 339 344 350 355 355 355 356 348 308 216 204 204 202 202 202 204 204 206 208 212 217 218 216 218 220 223 225 226 226 227 227 228 228 228 232 238 243
250 250 260 272 281 285 281 290 304 314 325 333 338 344 350 355 356 355 358 358 349 210 198 200 200 199 202 203 205 206 209 212 215 216 217 220 223 224 225 227 229 232 234 236 237 237 240 245 249
243 242 243 248 258 271 283 285 294 310 321 330 336 341 348 355 356 354 354 353 359 194 192 198 203 205 206 206 207 207 209 213 215 216 220 223 225 225 226 230 234 237 240 242 243 245 247 251 253
243 242 242 249 260 270 274 280 290 300 313 324 333 339 344 348 351 351 346 342 333 268 212 205 207 211 213 210 211 209 211 213 217 221 223 225 226 227 230 235 240 244 246 248 248 250 253 255 256
242 243 246 250 258 266 277 286 286 294 308 315 323 331 337 339 347 352 349 333 293 264 249 227 215 209 212 211 211 212 215 219 223 225 227 228 231 233 237 242 246 248 251 253 254 255 258 259 260
249 249 251 253 253 257 265 273 273 282 294 302 307 316 325 327 332 338 340 341 319 277 270 254 218 212 212 210 212 217 222 225 229 231 232 235 238 242 245 248 250 253 256 257 258 258 260 261 263
250 250 253 255 260 265 263 265 270 275 282 290 295 302 310 315 320 327 329 323 312 293 280 262 244 233 227 223 221 224 227 230 234 235 237 239 243 247 249 251 254 257 258 259 259 260 263 264 266
Height
5901 5900 5899 5899 5899 5899 5898 5897 5896 5894 5892 5891 5889 5888 5887 5887 5887 5889 5886 5884 5885 5886 5887 5888 5890 5891 5892 5894 5894 5895 5895 5896 5896 5896 5897 5897 5898 5898 5898 5898 5898 5898 5898 5898 5898 5898 5897 5897 5897
5901 5900 5899 5899 5899 5900 5899 5896 5895 5893 5892 5890 5888 5887 5886 5885 5884 5884 5883 5883 5883 5884 5885 5887 5888 5890 5891 5893 5893 5894 5895 5895 5896 5896 5896 5897 5897 5898 5898 5898 5898 5898 5898 5897 5897 5897 5897 5897 5896
5900 5899 5899 5899 5899 5900 5898 5896 5894 5892 5890 5888 5887 5885 5884 5883 5882 5881 5881 5881 5882 5882 5883 5885 5887 5888 5890 5891 5892 5893 5894 5894 5895 5895 5896 5897 5897 5897 5897 5898 5898 5897 5897 5897 5896 5896 5896 5896 5895
5900 5899 5899 5899 5899 5897 5896 5894 5892 5890 5888 5887 5885 5884 5883 5882 5880 5879 5879 5879 5879 5880 5881 5883 5885 5886 5888 5890 5891 5892 5893 5894 5894 5895 5895 5896 5897 5897 5897 5897 5897 5897 5896 5896 5896 5895 5895 5895 5895
5899 5899 5899 5898 5898 5896 5895 5893 5891 5889 5887 5886 5884 5882 5881 5879 5878 5877 5876 5876 5877 5878 5879 5881 5882 5884 5886 5888 5890 5891 5892 5893 5894 5894 5895 5896 5896 5896 5896 5896 5896 5896 5895 5895 5895 5894 5894 5894 5894
5899 5899 5899 5900 5897 5895 5894 5892 5890 5888 5886 5884 5883 5881 5879 5877 5875 5874 5874 5874 5874 5875 5877 5878 5880 5882 5884 5886 5888 5890 5891 5892 5893 5894 5894 5895 5896 5896 5896 5896 5895 5895 5895 5894 5894 5894 5893 5893 5893
5899 5898 5898 5898 5896 5895 5893 5891 5889 5887 5885 5883 5881 5879 5877 5875 5873 5872 5871 5871 5872 5873 5874 5876 5878 5880 5882 5884 5886 5888 5890 5891 5892 5893 5894 5894 5895 5895 5895 5895 5895 5894 5894 5893 5893 5893 5893 5893 5893
5897 5898 5897 5896 5896 5894 5892 5890 5888 5886 5884 5881 5879 5877 5875 5873 5871 5870 5869 5868 5869 5870 5871 5873 5875 5878 5880 5882 5884 5887 5888 5889 5891 5892 5892 5893 5894 5894 5894 5894 5894 5893 5893 5892 5892 5892 5892 5892 5892
5896 5898 5897 5896 5894 5893 5891 5889 5887 5884 5882 5879 5876 5874 5872 5869 5868 5867 5866 5866 5866 5867 5868 5870 5873 5875 5878 5880 5882 5884 5886 5888 5889 5890 5891 5892 5893 5893 5893 5893 5892 5892 5892 5891 5891 5891 5891 5891 5891
5896 5896 5896 5894 5893 5891 5889 5887 5885 5883 5880 5877 5874 5872 5869 5866 5865 5864 5863 5863 5863 5864 5865 5868 5870 5873 5875 5878 5880 5882 5884 5886 5888 5889 5890 5891 5891 5892 5892 5892 5891 5891 5891 5890 5890 5890 5889 5889 5890
5894 5895 5893 5892 5891 5890 5888 5886 5883 5881 5878 5875 5872 5869 5866 5864 5862 5861 5860 5860 5860 5861 5863 5865 5868 5871 5873 5876 5878 5880 5882 5884 5886 5887 5889 5890 5890 5890 5891 5891 5890 5890 5889 5889 5889 5889 5888 5888 5888
5893 5893 5892 5891 5890 5889 5887 5885 5882 5879 5877 5874 5870 5867 5864 5861 5859 5858 5857 5857 5857 5858 5860 5862 5865 5868 5871 5873 5876 5879 5881 5883 5884 5886 5887 5888 5889 5889 5889 5889 5889 5889 5888 5888 5888 5887 5887 5887 5887
5892 5891 5891 5890 5889 5887 5885 5883 5881 5878 5874 5871 5867 5864 5862 5859 5857 5856 5854 5853 5854 5855 5857 5860 5863 5866 5869 5872 5874 5877 5879 5881 5883 5884 5886 5887 5887 5888 5888 5888 5888 5888 5888 5887 5887 5887 5887 5887 5886
5890 5890 5889 5888 5887 5886 5884 5882 5879 5876 5872 5869 5865 5862 5859 5857 5854 5853 5851 5850 5851 5852 5853 5857 5860 5863 5866 5869 5872 5875 5877 5879 5881 5883 5884 5885 5886 5886 5887 5887 5887 5887 5887 5887 5887 5886 5886 5886 5886
5889 5889 5888 5887 5886 5885 5883 5881 5877 5874 5870 5866 5862 5859 5856 5854 5851 5850 5848 5847 5847 5848 5850 5853 5857 5860 5863 5866 5869 5872 5875 5877 5879 5881 5883 5884 5884 5885 5886 5886 5887 5886 5886 5886 5886 5886 5886 5886 5886
5887 5888 5889 5886 5885 5883 5883 5881 5876 5872 5868 5863 5859 5856 5854 5851 5849 5847 5845 5844 5843 5844 5846 5850 5853 5856 5860 5863 5866 5870 5872 5875 5877 5879 5881 5882 5883 5883 5884 5885 5886 5886 5886 5886 5886 5886 5886 5886 5885
5886 5887 5887 5885 5883 5882 5880 5878 5874 5870 5865 5861 5857 5854 5851 5849 5846 5844 5842 5841 5841 5841 5843 5846 5849 5852 5856 5859 5863 5867 5870 5873 5875 5877 5879 5880 5881 5882 5883 5884 5885 5885 5885 5885 5885 5885 5886 5885 5885
5884 5884 5884 5883 5881 5880 5878 5876 5872 5868 5864 5859 5856 5852 5849 5847 5844 5842 5840 5839 5839 5839 5840 5842 5845 5849 5852 5856 5860 5864 5867 5870 5872 5874 5876 5878 5880 5881 5882 5883 5884 5884 5885 5885 5885 5885 5885 5885 5885
5880 5880 5881 5880 5878 5877 5876 5873 5870 5866 5862 5858 5854 5851 5847 5844 5842 5839 5837 5836 5836 5836 5837 5839 5843 5846 5850 5854 5857 5861 5864 5867 5870 5872 5875 5877 5878 5880 5881 5882 5883 5884 5884 5885 5885 5885 5885 5885 5885
5876 5877 5878 5877 5876 5875 5873 5871 5868 5864 5861 5856 5852 5849 5846 5843 5840 5837 5835 5833 5832 5833 5835 5837 5840 5843 5847 5851 5854 5858 5862 5865 5868 5870 5873 5875 5877 5878 5880 5881 5882 5883 5884 5884 5884 5885 5885 5885 5885
5873 5874 5875 5874 5873 5872 5871 5870 5866 5863 5859 5855 5851 5848 5845 5841 5838 5835 5832 5830 5830 5830 5832 5834 5837 5840 5844 5848 5852 5855 5859 5863 5866 5868 5871 5873 5875 5877 5878 5879 5881 5882 5883 5883 5884 5884 5885 5885 5885
5870 5871 5871 5871 5871 5872 5870 5868 5865 5861 5857 5854 5850 5847 5844 5840 5837 5834 5831 5829 5829 5829 5830 5832 5835 5838 5841 5845 5849 5853 5857 5860 5863 5866 5869 5871 5873 5875 5876 5878 5879 5880 5881 5882 5883 5884 5884 5885 5885
5866 5866 5867 5868 5868 5868 5868 5866 5866 5860 5856 5853 5849 5846 5843 5840 5836 5833 5831 5829 5828 5828 5829 5831 5833 5836 5839 5843 5847 5851 5855 5858 5861 5864 5867 5869 5871 5873 5874 5876 5877 5879 5880 5881 5882 5883 5883 5884 5884
5862 5863 5864 5865 5866 5867 5865 5864 5863 5859 5855 5852 5848 5845 5842 5839 5836 5833 5831 5829 5827 5828 5829 5831 5833 5835 5838 5842 5845 5849 5852 5856 5859 5862 5864 5866 5868 5870 5872 5874 5875 5877 5878 5879 5880 5881 5882 5882 5883
5858 5861 5863 5864 5865 5866 5862 5861 5861 5857 5854 5851 5847 5844 5842 5839 5836 5834 5832 5830 5829 5829 5829 5831 5832 5834 5837 5840 5843 5847 5850 5853 5856 5859 5862 5864 5866 5868 5870 5871 5873 5874 5875 5876 5877 5878 5879 5880 5880
5854 5857 5860 5862 5863 5863 5860 5858 5858 5854 5852 5849 5846 5844 5841 5838 5836 5834 5832 5831 5830 5830 5830 5831 5832 5834 5836 5839 5842 5845 5848 5851 5854 5857 5859 5862 5863 5865 5867 5869 5870 5871 5872 5873 5874 5875 5875 5876 5876
5850 5852 5855 5857 5857 5857 5858 5856 5854 5852 5850 5847 5845 5843 5841 5838 5836 5834 5833 5832 5831 5831 5831 5831 5832 5833 5835 5838 5841 5843 5846 5849 5852 5854 5857 5859 5861 5862 5864 5866 5867 5868 5869 5869 5870 5870 5871 5871 5872
5846 5848 5849 5852 5853 5854 5855 5854 5853 5850 5848 5846 5844 5842 5840 5838 5836 5834 5833 5832 5831 5831 5831 5831 5830 5831 5834 5837 5839 5842 5845 5847 5849 5852 5854 5856 5857 5859 5861 5862 5863 5864 5865 5865 5865 5866 5866 5866 5866
5842 5844 5845 5847 5848 5850 5851 5854 5849 5847 5845 5844 5842 5841 5839 5837 5835 5834 5832 5831 5831 5831 5831 5831 5831 5832 5834 5836 5838 5841 5842 5844 5846 5848 5850 5852 5854 5855 5857 5858 5858 5859 5860 5860 5860 5860 5860 5860 5860
5837 5838 5840 5842 5843 5843 5845 5850 5844 5843 5842 5841 5839 5838 5837 5836 5834 5833 5832 5831 5831 5831 5831 5831 5831 5832 5834 5835 5836 5838 5839 5840 5842 5844 5846 5848 5849 5851 5852 5853 5853 5854 5854 5854 5854 5854 5854 5854 5854